Location: Unspecified
(0.0000°N, 0.0000°E)
Time: 19:01:16
(UTC+00:00)

CUBERRT - Pass Details

Date: 19 May 2019
Orbit: 371 x 378 km, 51.6° (Epoch: 17 June)

Event Time Altitude Azimuth Distance (km) Brightness Sun altitude
Rises 04:33:09 0° 342° (NNW) 2,238 ? -19.6°
Reaches altitude 10° 04:35:23 10° 355° (N) 1,391 ? -19.0°
Maximum altitude 04:38:04 26° 54° (NE) 795 ? -18.4°
Drops below altitude 10° 04:40:45 10° 114° (ESE) 1,400 ? -17.8°
Sets 04:43:00 0° 127° (SE) 2,256 ? -17.3°
